Other Public Products
Issued by NWS Grand Forks, ND

Home | Current Version | Previous Version | Graphics & Text | Print | Product List | Glossary On
Versions: 1 2 3 4 5 6 7 8 9 10 11 12 13 14 15 16 17 18 19 20 21 22 23 24 25 26 27 28 29 30 31 32 33 34 35 36 37 38 39 40 41 42 43 44 45 46 47 48 49 50
000
FPUS83 KFGF 250510
OPUFGF
PRAIRIE TO PINES WEATHER ROUNDUP
NATIONAL WEATHER SERVICE EASTERN NORTH DAKOTA/GRAND FORKS ND
1100 PM CST FRI FEB 24 2017

 **SATELLITE DATA USED TO AUGMENT SKY COVER AT AUTOMATED STATIONS**
 *****  WEATHER ACROSS EASTERN NORTH DAKOTA  *****

CITY           SKY/WX    TMP DP  RH WIND       PRES   REMARKS
GRAND FORKS    FAIR      16   8  71 CALM      30.10F
GRAND FORKS AF FAIR      15  12  88 NW5       30.09F WCI   7
GRAND CITY NWS NOT AVBL
BUXTON         NOT AVBL
DEVILS LAKE    FAIR      16  13  88 SW6       30.06F WCI   7
FARGO          FAIR      18  11  74 N12       30.09F WCI   5
WAHPETON ARPT  FAIR      19   9  63 N10       30.09S WCI   8
$$

 *****  WEATHER ACROSS CENTRAL AND WESTERN NORTH DAKOTA  *****

CITY           SKY/WX    TMP DP  RH WIND       PRES   REMARKS
JAMESTOWN      FAIR      16  13  88 CALM      30.07F
BISMARCK       FAIR      18  15  88 CALM      30.09F
MINOT          FAIR      22  16  78 S6        30.03F WCI  14
MINOT AFB      NOT AVBL
GARRISON         N/A     16  12  84 CALM      30.04F
WILLISTON      CLOUDY    22  17  81 SW3       30.03F
DICKINSON      CLOUDY    19  15  84 S5        30.01F WCI  12
HETTINGER      CLOUDY    22  15  75 SE5       30.04F WCI  16
$$

 *****  OTHER OBSERVATIONS NORTHEAST NORTH DAKOTA  *****

CITY           SKY/WX    TMP DP  RH WIND       PRES   REMARKS
WALHALLA       NOT AVBL
LANGDON        NOT AVBL
CAVALIER         N/A      9   7  92 CALM      30.08F
GRAFTON        FAIR      12  10  92 CALM      30.11F
CANDO          NOT AVBL
FORT TOTTEN      N/A     13  12  96 CALM      29.95S
ROLLA          FAIR      12   9  85 W12       30.01F WCI  -2
RUGBY            N/A     16  12  86 W3        30.04F
 ***** THE ABOVE OBSERVATIONS ARE NON NWS ARE NOT QUALITY
        CONTROLLED AND MAY MIS-REPORT RAIN FOR SNOW...
$$

 *****  OTHER OBSERVATIONS SOUTHEAST NORTH DAKOTA *****

CITY           SKY/WX    TMP DP  RH WIND       PRES   REMARKS
COOPERSTOWN    FAIR      14  12  92 W5        30.07F WCI   6
VALLEY CITY    FAIR      14  14 100 NW7       30.10S WCI   4
OAKES          NOT AVBL
GWINNER        FAIR      19  18  93 NW9       30.09F WCI   9
SHEYENNE NWR     N/A     15  11  83 N2        29.95S
BUFFALO        NOT AVBL
WYNDMERE       NOT AVBL
 ***** THE ABOVE OBSERVATIONS ARE NON NWS ARE NOT QUALITY
       CONTROLLED AND MAY MIS-REPORT RAIN FOR SNOW...
$$

  *****  WEATHER ACROSS NORTHERN MINNESOTA  *****

CITY           SKY/WX    TMP DP  RH WIND       PRES   REMARKS
FLAG ISLAND    FAIR       7   1  78 NW9       30.01F WCI  -7
WARROAD        FAIR       9   1  72 NW5       30.03F WCI   0
ROSEAU         FAIR       7   1  78 W7        30.05S WCI  -5
HALLOCK        FAIR       9   5  85 W3        30.08F
THF RVR FALLS  FAIR      11   7  84 NW10      30.06F WCI  -3
HALSTAD          N/A     17  10  77 N9          N/A  WCI   5
FOSSTON        FAIR      10   5  79 NW13      30.03F WCI  -5
BAUDETTE       FAIR       8   1  73 NW9       29.99F WCI  -5
WASKISH        FAIR      10   5  79 NW5       30.00S WCI   2
CROOKSTON      FAIR      16  10  79 NW9       30.10F WCI   4
$$
  *****  WEATHER ACROSS CENTRAL AND WEST MINNESOTA  *****

CITY           SKY/WX    TMP DP  RH WIND       PRES   REMARKS
BEMIDJI        FAIR      10   3  75 NW12      29.98F WCI  -5
PARK RAPIDS    FAIR      13   2  61 NW10      29.96F WCI   0
WADENA         FAIR      12   7  79 NW13G20   29.97F WCI  -3
DETROIT LAKES  FAIR      14   9  79 N18       30.02F WCI  -3
MOORHEAD       FAIR      18   9  68 N13       30.09F WCI   4
FERGUS FALLS   FAIR      16   7  67 N15G22    30.09F WCI   1
ELBOW LAKE     FAIR      16   8  70 NW17G25   30.03S WCI   0
MORRIS MN      FAIR      18  10  73 NW22      30.02S WCI   0
STAPLES        FAIR      14   7  73 NW14G21   29.96S WCI  -1
WHEATON        FAIR      18   9  68 NW14G22   30.10S WCI   4
$$
  *****  WEATHER ELSEWHERE ACROSS MINNESOTA  *****

CITY           SKY/WX    TMP DP  RH WIND       PRES   REMARKS
DULUTH         FAIR      14   5  67 N14G22    29.83F WCI  -1
INTRNTL FALLS  FAIR       7   0  73 NW10      29.95S WCI  -8
ELY            FAIR      10   1  67 NW6       29.84F WCI   1
CLOQUET        FAIR      14   5  67 NW10      29.86F WCI   1
BRAINERD       MOCLDY    16   6  65 N15       29.94S WCI   1
HIBBING        MOCLDY    12   3  67 NW15      29.87F WCI  -4
ALEXANDRIA     FAIR      16   8  71 NW18G25   29.97F WCI   0
SAINT CLOUD    FAIR      19   7  59 N14G23    29.93R WCI   6
MINNEAPOLIS    FAIR      21   7  54 N18G26    29.89S WCI   6
$$

  *****  WEATHER ACROSS SOUTH DAKOTA  *****

CITY           SKY/WX    TMP DP  RH WIND       PRES   REMARKS
SIOUX FALLS    MOCLDY    20  14  77 N15       30.04S WCI   6
BROOKINGS      MOCLDY    20  13  74 N17G28    30.03S WCI   5
WATERTOWN      FAIR      18  13  80 N14       30.03F WCI   4
HURON          FAIR      20  16  84 NW12      30.11S WCI   8
SISSETON         N/A     18  15  88 N9        30.07F WCI   7
ABERDEEN       FAIR      17  12  80 NW7       30.11F WCI   8
MITCHELL       FAIR      22  17  81 NW13      30.12R WCI  10
PIERRE         FAIR      20  12  71 E5        30.11F WCI  13
MOBRIDGE       CLOUDY    21  14  74 CALM      30.08F
RAPID CITY     FAIR      15  12  88 SW3       30.04F
$$

  *****  SOME WEATHER IN NEARBY STATES *****

CITY           SKY/WX    TMP DP  RH WIND       PRES   REMARKS
GLASGOW MT     FLURRIES  27  23  85 N7        30.03F WCI  19
GREAT FALLS MT CLOUDY    23  17  78 E3        30.05R
CHEYENNE WY    FAIR       6   1  80 W7        29.97S WCI  -6
SCOTTSBLUFF NE CLOUDY    13   9  84 E6        30.05S WCI   4
OMAHA NE       FAIR      23  15  71 NW12      30.04R WCI  12
DES MOINES IA  FLURRIES  24  16  71 NW18G28   29.91R WCI  10
DAVENPORT IA   LGT SNOW  28  24  85 NW16      29.72R FOG     WCI  16
CHICAGO IL     CLOUDY    34  30  85 NW13      29.59R WCI  25
EAU CLAIRE WI  LGT SNOW  17  14  88 N6        29.79F FOG     WCI   9
LA CROSSE WI   CLOUDY    21  15  78 N21G28    29.78S HAZE    WCI   5
$$

  *****  SOME NATIONAL WEATHER *****

CITY           SKY/WX    TMP DP  RH WIND       PRES   REMARKS
LA GUARDIA NY  CLOUDY    55  52  89 S5        29.85F
RALEIGH NC     FAIR      64  57  78 S8        29.82F
ATLANTA GA     MOCLDY    67  55  65 S9        29.78F
NEW ORLEANS LA FAIR      66  64  93 SW6       29.85R
OKLAHOMA CITY  FAIR      35  22  58 N9        30.14S
ALBUQUERQUE NM FAIR      36  -6  16 N6        30.06R
SALT LAKE CITY FAIR      25  14  63 SE7       30.14S WCI  17
LOS ANGELES CA FAIR      53  41  63 SW3       30.17R
BOISE ID       FAIR      28  17  63 SE8       30.16R WCI  20
SEATTLE WA     MOCLDY    40  33  76 N6        30.22R
$$

*** WEATHER ACROSS MANITOBA...SASKATCHEWAN AND ONTARIO ***
                ***ONTARIO***

CITY           SKY/WX    TMP DP  RH WIND       PRES   REMARKS
GERALDTON      FLURRIES   5   1  85 NE9G17    29.81F WCI  -9
THUNDER BAY    FLURRIES  14   7  73 N10G20    29.82F WCI   1
SIOUX LOOKOUT  FLURRIES  10   3  72 VRB2      29.91F
TORONTO        TSTM      37  37 100 VRB2      29.56S VSB 3/8
BIG TROUT LK   CLEAR     -6  -9  84 E3        30.02F
PICKLE LAKE    NOT AVBL
DRYDEN         MOCLDY     5   1  85 NW7       29.91F WCI  -7
KENORA         CLEAR      7   0  72 NW8       29.97F WCI  -6
$$
                *** MANITOBA***

CITY           SKY/WX    TMP DP  RH WIND       PRES   REMARKS
BRANDON        LGT SNOW  18  12  79 SW3       30.01F
DAUPHIN        CLOUDY    21  18  86 W8        30.00F WCI  12
ISLAND LAKE    FLURRIES   1  -2  85 W2        30.02F
PILOT MOUND      N/A     10   7  85 SW5         N/A  WCI   2
THE PAS        FLURRIES  10   7  85 S2        30.03F
THOMPSON       PTCLDY   -18 -24  76 VRB2      30.03F
WINNIPEG       CLEAR     10   7  85 SW2       30.07F
LYNN LAKE      FLURRIES  -4  -8  84 W6        30.00F WCI -16
CHURCHILL      MOCLDY    -8 -13  77 S7        30.11F WCI -22
GILLAM         CLEAR    -15 -18  84 CALM      30.07F
$$
                ***SASKATCHEWAN***

CITY           SKY/WX    TMP DP  RH WIND       PRES   REMARKS
ESTEVAN        PTCLDY    21  19  93 SW9       29.99F WCI  11
KINDERSLEY     MOCLDY    14   7  73 N10G17    30.09S WCI   1
LLOYDMINSTER   CLEAR      0  -4  85 NW5       30.10F WCI -10
PRINCE ALBERT  CLOUDY     9   0  66 NW3       30.10S
REGINA         FOG       14  12  92 W6        30.01F VSB 3/8 WCI   5
YORKTON        CLEAR     18  18 100 SW7       29.97F W


USA.gov is the U.S. government's official web portal to all federal, state and local government web resources and services.